KINEIS-1A

Last updated on Wed Sep 09 2026 00:02:55 GMT+0000 (Coordinated Universal Time)

1 60084U 24114F 26251.59472600 .00000493 00000+0 70756-4 0 9993 2 60084 97.8911 273.7791 0003115 211.8015 148.3010 14.80726613119735
UTC large
Height (km)
Speed (km/s)
/
Latitude / Longitude
Inclination (degrees)
Orbital Period (minutes)
Azimuth
Elevation
Range (km)
Doppler Factor

Next 0 passes for location: London (51.5072 / 0.1276)

No passes found over London.
KINEIS-1A